User: anonymous   Login
Location: Vancouver
(49.2500°N, 123.1330°W)
Time: 06:59:22
(UTC-07:00)
Language:

Cosmos 2333 Rocket - Orbit

View from above orbital plane
View from above orbital plane
View from above satellite
View from above satellite

Ground track
Ground track

The orbit data is extracted from the following two-line orbital elements,

1 24298U 96051B   16269.14900551  .00000067  00000-0  62531-4 0  9999
2 24298  70.8379 260.6852 0018961 221.7394 138.2281 14.12433894 34396
Epoch (UTC): 25 September 2016 03:34:34
Eccentricity: 0.0018961
inclination: 70.8379°
perigee height: 837 km
apogee height: 865 km
right ascension of ascending node: 260.6852°
argument of perigee: 221.7394°
revolutions per day: 14.12433894
mean anomaly at epoch: 138.2281°
orbit number at epoch: 3439

The dashed part of the orbit path shows where the satellite is in the earth's shadow,  

DLR